TV
NORAD ID: 28626
Int'l Code: 2005-008A
Perigee: 35,790.7 km
Apogee: 35,796.1 km
Inclination: 0.0 °
Period: 1,436.1 minutes
Semi major axis: 42164 km
Launch date: March 1, 2005
Source: United States (US)
Comments: 130 channels of digital music uplinked in the X-band from one or more ground stations.
Two Line Element Set (TLE):
1 28626U 05008A 13138.06832579 -.00000206 00000-0 10000-3 0 3776
2 28626 000.0340 099.5998 0000648 236.6868 199.1532 01.00272969 30154
Source: AFSPC
NASA's NSSDC Master Catalog entry for XM-3